Regional Weather Roundup
Issued by NWS

Home | Current Version | Previous Version | Text Only | Print | Product List | Glossary On
Versions: 1 2 3 4 5 6 7 8 9 10 11 12 13 14 15 16 17 18 19 20 21 22 23 24 25 26 27 28 29 30 31 32 33 34 35 36 37 38 39 40 41 42 43 44 45 46 47 48 49 50
000
ASUS42 KFFC 061003
RWRGA
WEATHER ROUNDUP FOR GEORGIA
NATIONAL WEATHER SERVICE PEACHTREE CITY GA
500 AM EST FRI MAR 06 2015

NOTE: "FAIR" INDICATES FEW OR NO CLOUDS BELOW 12,000 FEET WITH NO
SIGNIFICANT WEATHER AND/OR OBSTRUCTIONS TO VISIBILITY.

* = USE WITH CAUTION. THE STATIONS MARKED WITH AN ASTERISK MAY NOT
REPORT WEATHER SUCH AS PRECIPITATION, FOG, OR THUNDER AND ARE NOT
QUALITY CONTROLLED BY NWS.

THE REMARK "TC" DENOTES TEMPERATURE READING IN DEGREES CELSIUS.

GAZ001>058-061100-
NORTH GEORGIA

CITY           SKY/WX    TMP DP  RH WIND       PRES   REMARKS
ATLANTA        CLOUDY    28  21  75 N12       30.32S WCI  18
ATHENS         CLOUDY    36  34  92 NE10      30.32S FOG     WCI  28
CHAMBLEE       CLOUDY    28  22  78 NW6       30.33S WCI  22
PEACHTREE CITY CLOUDY    29  22  75 NW12      30.34R WCI  19
ROME           CLEAR     23  16  74 N13       30.41R WCI  11
WEST ATLANTA   CLOUDY    27  20  75 NW8       30.35S WCI  19
GAINESVILLE    CLOUDY    34  28  79 N6        30.32R WCI  29
CARTERSVILLE   CLOUDY    25  18  74 VRB3      30.39S


CITY           SKY/WX    TMP DP  RH WIND       PRES   REMARKS
DALTON*        CLOUDY    23  19  86 N10G18    30.42R WCI  12
MARIETTA       CLOUDY    26  22  83 NW8       30.33S WCI  17
$$

GAZ059>098-102>109-061100-
CENTRAL GEORGIA

CITY           SKY/WX    TMP DP  RH WIND       PRES   REMARKS
AUGUSTA-BUSH   CLOUDY    40  33  76 NE12      30.34R WCI  33
AUGUSTA-DANIEL CLOUDY    41  35  79 NE10      30.33R
COLUMBUS       CLOUDY    31  24  75 NE8       30.34R WCI  23
MACON          CLOUDY    35  29  78 N8        30.32R WCI  29
ROBINS AFB     CLOUDY    37  30  75 N10       30.32R WCI  30


CITY           SKY/WX    TMP DP  RH WIND       PRES   REMARKS
LAGRANGE*      CLOUDY    32  26  78 N6        30.34S WCI  26
SYLVANIA*      CLOUDY    41  38  89 NE10      30.32R
MILLEDGEVILLE* CLOUDY    37  37 100 CALM      30.32R
$$

GAZ099>101-110>166-061100-
SOUTH GEORGIA

CITY           SKY/WX    TMP DP  RH WIND       PRES   REMARKS
SAVANNAH       CLOUDY    42  38  85 NE12      30.30R
VALDOSTA       CLOUDY    44  39  82 N9        30.25R
ALMA           CLOUDY    45  39  79 N10       30.26R
ST SIMONS      CLOUDY    48  46  93 NE17      30.25R FOG
FT STEWART     CLOUDY    44  41  89 NE10      30.26R
ALBANY         CLOUDY    38  29  70 N8        30.33R WCI  32
HUNTER AFB     CLOUDY    42  41  96 NE10      30.27R
MOODY AFB      CLOUDY    44  38  79 N14       30.26R
BRUNSWICK      CLOUDY    50  46  87 NE12      30.26R


CITY           SKY/WX    TMP DP  RH WIND       PRES   REMARKS
BAINBRIDGE*    PTCLDY    41  34  75 N9        30.31R
MOULTRIE*      MOCLDY    41  36  81 N9        30.28R
VIDALIA*       CLOUDY    43  43 100 NE13      30.28R
WAYCROSS*      CLOUDY    48  45  88 N10       30.25S
DOUGLAS*       CLOUDY    45  39  81 N6        30.29R
$$


USA.gov is the U.S. government's official web portal to all federal, state and local government web resources and services.